Weather History for Crossville, TN

Change the Weather History Date:

Tuesday, August 13, 2013

  Actual Average Record
Temperature  
Mean Temperature 74 °F 74 °F  
Max Temperature 80 °F 84 °F 93 °F (2010)
Min Temperature 67 °F 65 °F 46 °F (1964)
Degree Days  
Heating Degree Days 0    
Month to date heating degree days 0  
Since 1 June heating degree days 0  
Since 1 July heating degree days 0  
Cooling Degree Days 9    
Month to date cooling degree days 113  
Year to date cooling degree days 625  
Since 1 June cooling degree days 545  
Growing Degree Days 24 (Base 50)    
Moisture  
Dew Point 68 °F    
Average Humidity 80    
Maximum Humidity 93    
Minimum Humidity 67    
Precipitation  
Precipitation 0.17 in 0.13 in 2.06 in (1998)
Month to date precipitation 2.25 1.85  
Year to date precipitation 45.51 35.98  
Sea Level Pressure  
Sea Level Pressure 29.99 in    
Wind  
Wind Speed 5 mph (West)    
Max Wind Speed 12 mph    
Max Gust Speed 15 mph    
Visibility 7 miles    
Events Rain    
T = Trace of Precipitation, MM = Missing Value Source: NWS Daily Summary

Daily Weather History Graph

Daily Weather History Graph

Search for Another Location

Airport:

Trip Planner

Search our weather history database for the weather conditions in past years. The results will help you decide how hot, cold, wet, or windy it might be!

Date:

Astronomy

Aug. 13, 2013 Rise Set
Actual Time 5:57 AM CDT 7:32 PM CDT
Civil Twilight 5:30 AM CDT 7:59 PM CDT
Nautical Twilight 4:57 AM CDT 8:32 PM CDT
Astronomical Twilight 4:22 AM CDT 9:06 PM CDT
Moon 12:36 PM CDT (8/13) 11:22 PM CDT (8/13)
Length of Visible Light 14h 29m
Length of Day
13h 34m
Waxing Crescent, 42% of the Moon is Illuminated
Aug 13
Waxing Crescent
Aug 14
First Quarter
Aug 20
Full
Aug 28
Last Quarter
Sep 5
New

Hourly Weather History & Observations

Time (CDT) Temp. Dew Point Humidity Pressure Visibility Wind Dir Wind Speed Gust Speed Precip Events Conditions
12:53 AM 72.0 °F 69.1 °F 91% 29.95 in 10.0 mi Calm Calm - N/A   Partly Cloudy
1:46 AM 73.4 °F 69.8 °F 88% 30.02 in 10.0 mi Calm Calm - 0.01 in   Mostly Cloudy
1:53 AM 73.0 °F 69.1 °F 87% 29.96 in 10.0 mi Calm Calm - 0.01 in   Mostly Cloudy
2:07 AM 71.6 °F 69.8 °F 94% 30.01 in 9.0 mi West 4.6 mph - N/A   Scattered Clouds
2:53 AM 73.0 °F 69.1 °F 87% 29.93 in 10.0 mi Calm Calm - 0.00 in   Scattered Clouds
3:38 AM 71.6 °F 69.8 °F 94% 29.99 in 7.0 mi West 3.5 mph - N/A   Partly Cloudy
3:53 AM 72.0 °F 69.1 °F 91% 29.92 in 7.0 mi West 3.5 mph - N/A   Clear
4:02 AM 71.6 °F 69.8 °F 94% 29.99 in 7.0 mi West 4.6 mph - N/A   Partly Cloudy
4:53 AM 71.1 °F 69.1 °F 93% 29.93 in 7.0 mi SW 3.5 mph - 0.01 in   Partly Cloudy
5:26 AM 71.6 °F 68.0 °F 88% 30.00 in 8.0 mi WSW 3.5 mph - N/A   Mostly Cloudy
5:34 AM 71.6 °F 68.0 °F 88% 30.00 in 8.0 mi SW 3.5 mph - N/A   Mostly Cloudy
5:41 AM 71.6 °F 68.0 °F 88% 30.00 in 9.0 mi SW 3.5 mph - N/A   Overcast
5:53 AM 71.1 °F 68.0 °F 90% 29.95 in 9.0 mi WSW 5.8 mph - N/A   Mostly Cloudy
6:08 AM 71.6 °F 68.0 °F 88% 30.00 in 10.0 mi West 4.6 mph - N/A   Overcast
6:53 AM 71.1 °F 66.9 °F 87% 29.95 in 10.0 mi West 5.8 mph - N/A   Overcast
7:53 AM 70.0 °F 66.9 °F 90% 29.97 in 7.0 mi Variable 5.8 mph - N/A   Overcast
8:16 AM 69.8 °F 68.0 °F 94% 30.02 in 2.0 mi West 5.8 mph - N/A   Overcast
8:33 AM 71.6 °F 68.0 °F 88% 30.02 in 4.0 mi West 5.8 mph - N/A   Overcast
8:53 AM 71.1 °F 68.0 °F 90% 29.97 in 5.0 mi Variable 3.5 mph - N/A   Overcast
9:18 AM 71.6 °F 68.0 °F 88% 30.03 in 1.8 mi WSW 4.6 mph - N/A   Overcast
9:28 AM 71.6 °F 68.0 °F 88% 30.03 in 3.0 mi West 4.6 mph - N/A   Overcast
9:37 AM 71.6 °F 68.0 °F 88% 30.04 in 1.8 mi Variable 4.6 mph - N/A   Overcast
9:53 AM 71.1 °F 68.0 °F 90% 29.98 in 1.2 mi WSW 4.6 mph - 0.01 in Rain Light Rain
10:05 AM 71.6 °F 68.0 °F 88% 30.04 in 2.5 mi West 5.8 mph - 0.00 in   Overcast
10:12 AM 71.6 °F 69.8 °F 94% 30.04 in 4.0 mi WSW 6.9 mph - 0.00 in   Overcast
10:35 AM 71.6 °F 69.8 °F 94% 30.05 in 2.5 mi WSW 5.8 mph - 0.01 in Rain Light Rain
10:43 AM 71.6 °F 69.8 °F 94% 30.04 in 3.0 mi WSW 4.6 mph - 0.01 in Rain Light Rain
10:53 AM 73.0 °F 69.1 °F 87% 29.98 in 8.0 mi Variable 5.8 mph - 0.01 in   Overcast
11:27 AM 75.2 °F 69.8 °F 83% 30.04 in 8.0 mi West 8.1 mph - N/A   Mostly Cloudy
11:46 AM 75.2 °F 68.0 °F 78% 30.04 in 10.0 mi WSW 8.1 mph - N/A   Mostly Cloudy
11:53 AM 75.9 °F 69.1 °F 79% 29.97 in 9.0 mi West 5.8 mph - N/A   Overcast
12:12 PM 75.2 °F 66.2 °F 73% 30.03 in 10.0 mi Variable 6.9 mph - N/A   Mostly Cloudy
12:53 PM 77.0 °F 68.0 °F 74% 29.95 in 10.0 mi WNW 6.9 mph - N/A   Overcast
1:07 PM 77.0 °F 66.2 °F 69% 30.02 in 10.0 mi NW 10.4 mph - N/A   Overcast
1:26 PM 75.2 °F 66.2 °F 73% 30.02 in 10.0 mi NW 8.1 mph - 0.01 in   Overcast
1:31 PM 73.4 °F 68.0 °F 83% 30.02 in 1.2 mi NNW 10.4 mph - 0.09 in Rain Heavy Rain
1:37 PM 73.4 °F 68.0 °F 83% 30.02 in 1.0 mi NW 6.9 mph - 0.11 in Rain Light Rain
1:43 PM 73.4 °F 69.8 °F 88% 30.02 in 3.0 mi NW 8.1 mph - 0.12 in Rain Light Rain
1:53 PM 73.0 °F 69.1 °F 87% 29.96 in 7.0 mi NW 5.8 mph - 0.12 in Rain Light Rain
2:53 PM 77.0 °F 69.1 °F 76% 29.93 in 10.0 mi West 8.1 mph - 0.01 in   Scattered Clouds
3:53 PM 78.1 °F 66.9 °F 68% 29.92 in 10.0 mi WNW 10.4 mph - N/A   Scattered Clouds
4:18 PM 78.8 °F 66.2 °F 65% 29.98 in 10.0 mi West 8.1 mph - N/A   Mostly Cloudy
4:44 PM 77.0 °F 68.0 °F 74% 29.97 in 10.0 mi NW 5.8 mph - N/A   Scattered Clouds
4:53 PM 77.0 °F 68.0 °F 74% 29.91 in 10.0 mi West 4.6 mph - N/A   Scattered Clouds
5:53 PM 77.0 °F 66.9 °F 71% 29.91 in 10.0 mi NNW 8.1 mph - N/A   Partly Cloudy
6:53 PM 75.9 °F 66.0 °F 71% 29.92 in 10.0 mi NW 4.6 mph - N/A   Scattered Clouds
7:53 PM 75.0 °F 66.9 °F 76% 29.94 in 10.0 mi NNW 3.5 mph - N/A   Clear
8:53 PM 73.0 °F 66.0 °F 79% 29.96 in 9.0 mi North 5.8 mph - N/A   Mostly Cloudy
9:53 PM 70.0 °F 64.9 °F 84% 29.98 in 8.0 mi North 4.6 mph - N/A   Partly Cloudy
10:53 PM 69.1 °F 64.9 °F 87% 29.99 in 7.0 mi North 5.8 mph - N/A   Clear
11:53 PM 68.0 °F 64.0 °F 87% 29.97 in 7.0 mi North 5.8 mph - N/A   Clear